Regional Weather Roundup
Issued by NWS

Home | Current Version | Previous Version | Graphics & Text | Print | Product List | Glossary On
Versions: 1 2 3 4 5 6 7 8 9 10 11 12 13 14 15 16 17 18 19 20 21 22 23 24 25 26 27 28 29 30 31 32 33 34 35 36 37 38 39 40 41 42 43 44 45 46 47 48 49 50
000
ASUS45 KPSR 271210
RWRAZ

ARIZONA HOURLY REGIONAL WEATHER ROUNDUP
NATIONAL WEATHER SERVICE PHOENIX AZ
500 AM MST MON MAR 27 2017

NOTE: FAIR INDICATES FEW OR NO CLOUDS BELOW 12,000 FEET WITH NO
SIGNIFICANT WEATHER AND/OR OBSTRUCTIONS TO VISIBILITY.

AZZ001>003-036-271300-
NORTHWEST ARIZONA

CITY           SKY/WX    TMP DP  RH WIND       PRES   REMARKS
BULLHEAD CITY  PTCLDY    61  36  39 CALM      29.82R
KINGMAN        PTCLDY    50  24  36 S8        29.88F
6HR MIN TEMP:  45; 6HR MAX TEMP:  56;

$$

AZZ004>008-015-016-018-271300-
NORTH CENTRAL ARIZONA

CITY           SKY/WX    TMP DP  RH WIND       PRES   REMARKS
GRAND CANYON   CLOUDY    28  26  92 CALM      29.99F
6HR MIN TEMP:  27; 6HR MAX TEMP:  33;

WILLIAMS       CLOUDY    37  27  65 S8        29.99F WCI  31
PRESCOTT       CLOUDY    44  31  60 CALM      29.97F
6HR MIN TEMP:  40; 6HR MAX TEMP:  49;

FLAGSTAFF      PTCLDY    29  24  82 CALM      30.01F
6HR MIN TEMP:  28; 6HR MAX TEMP:  34;

PAYSON         CLEAR     41  28  60 CALM      30.01S
PAGE           MOCLDY    50  33  52 W3        29.90F
6HR MIN TEMP:  48; 6HR MAX TEMP:  56;

$$

AZZ009>014-017-271300-
NORTHEAST ARIZONA

CITY           SKY/WX    TMP DP  RH WIND       PRES   REMARKS
WINSLOW        PTCLDY    37  25  61 CALM      29.98S
6HR MIN TEMP:  35; 6HR MAX TEMP:  51;

SAINT JOHNS    PTCLDY    36  21  54 CALM      30.00S
6HR MIN TEMP:  34; 6HR MAX TEMP:  47;

WINDOW ROCK    CLEAR     26  22  84 CALM      30.02S
6HR MIN TEMP:  26; 6HR MAX TEMP:  38;

SHOW LOW       CLEAR     37  23  56 S8        30.02F WCI  31
$$

AZZ023-271300-
GREATER PHOENIX AREA

CITY           SKY/WX    TMP DP  RH WIND       PRES   REMARKS
PHOENIX        PTCLDY    60  37  42 E7        29.86R
6HR MIN TEMP:  60; 6HR MAX TEMP:  70;

BUCKEYE        CLEAR     52  32  46 NE5       29.87S
LUKE AFB       CLEAR     53  39  59 NW5       29.86R
6HR MIN TEMP:  53; 6HR MAX TEMP:  64;

DEER VALLEY    CLEAR     55  36  48 CALM      29.87R
6HR MIN TEMP:  54; 6HR MAX TEMP:  60;

SCOTTSDALE     CLEAR     56  39  53 CALM      29.88S
6HR MIN TEMP:  55; 6HR MAX TEMP:  67;

MESA-GATEWAY   CLEAR     54  36  50 SE9       29.88F
$$

AZZ027-028-271300-
SOUTHWEST MARICOPA COUNTY AND PINAL COUNTY

CITY           SKY/WX    TMP DP  RH WIND       PRES   REMARKS
CASA GRANDE    NOT AVBL
GILA BEND      FAIR      57  31  36 CALM      29.86S
6HR MIN TEMP:  57; 6HR MAX TEMP:  64;

$$

AZZ503-504-507>509-271300-
SOUTHEAST ARIZONA

CITY           SKY/WX    TMP DP  RH WIND       PRES   REMARKS
TUCSON         CLEAR     53  25  33 SE5       29.95S
6HR MIN TEMP:  53; 6HR MAX TEMP:  62;

DAVIS-MONTHAN  CLEAR     51  26  37 S7        29.94S
6HR MIN TEMP:  51; 6HR MAX TEMP:  58;

NOGALES        CLEAR     46  27  47 CALM      29.98R
6HR MIN TEMP:  46; 6HR MAX TEMP:  58;

SIERRA VISTA   CLEAR     46  27  47 W8        30.00S
6HR MIN TEMP:  46; 6HR MAX TEMP:  57;

DOUGLAS        CLEAR     47  22  37 SE3       29.99S
6HR MIN TEMP:  43; 6HR MAX TEMP:  55;

SAFFORD        CLEAR     45  25  45 SE5       29.94S
6HR MIN TEMP:  42; 6HR MAX TEMP:  58;

$$

AZZ020-021-025-026-031-271300-
SOUTHWEST ARIZONA

CITY           SKY/WX    TMP DP  RH WIND       PRES   REMARKS
YUMA           CLEAR     59  45  59 S3        29.84F
6HR MIN TEMP:  59; 6HR MAX TEMP:  68;

$$

CAZ031-033-041-043-047-048-061-271300-
SOUTHERN CALIFORNIA

CITY           SKY/WX    TMP DP  RH WIND       PRES   REMARKS
DOWNTOWN L.A.  CLEAR     55  51  86 CALM      30.00S
6HR MIN TEMP:  55; 6HR MAX TEMP:  60;

L.A. AIRPORT   PTCLDY    54  52  93 NE3       30.01S
6HR MIN TEMP:  53; 6HR MAX TEMP:  58;

SAN DIEGO      MOCLDY    60  50  69 W3        30.03F
6HR MIN TEMP:  60; 6HR MAX TEMP:  61;

BURBANK        CLEAR     52  46  80 SE3       29.99S
6HR MIN TEMP:  52; 6HR MAX TEMP:  58;

ONTARIO        MOCLDY    52  50  93 CALM      30.00F
6HR MIN TEMP:  51; 6HR MAX TEMP:  55;

RIVERSIDE      CLOUDY    54  52  93 W3        30.02R
6HR MIN TEMP:  53; 6HR MAX TEMP:  57;

PALM SPRINGS   PTCLDY    60  50  69 S5        29.85S
6HR MIN TEMP:  60; 6HR MAX TEMP:  69;

EL CENTRO NAS  CLEAR     63  42  46 W14       29.85S
6HR MIN TEMP:  61; 6HR MAX TEMP:  68;

IMPERIAL       CLEAR     63  45  51 N5        29.84R
6HR MIN TEMP:  60; 6HR MAX TEMP:  66;

BLYTHE         PTCLDY    60  49  66 SE7       29.81F
6HR MIN TEMP:  60; 6HR MAX TEMP:  72;

NEEDLES        PTCLDY    67  35  30 W9        29.82R
6HR MIN TEMP:  66; 6HR MAX TEMP:  73;

$$

NVZ020-UTZ003-271300-
SOUTHERN NEVADA-UTAH

CITY           SKY/WX    TMP DP  RH WIND       PRES   REMARKS
LAS VEGAS      CLEAR     60  37  42 S18G28    29.78F
6HR MIN TEMP:  60; 6HR MAX TEMP:  65;

SALT LAKE CITY CLOUDY    47  38  71 SE16      29.86F
6HR MIN TEMP:  47; 6HR MAX TEMP:  50; 6HR PCP:  0.01;

$$

NMZ009-TXZ055-271300-
NEW MEXICO-WEST TEXAS

CITY           SKY/WX    TMP DP  RH WIND       PRES   REMARKS
ALBUQUERQUE    PTCLDY    41  25  53 W6        30.00S
6HR MIN TEMP:  37; 6HR MAX TEMP:  52;

EL PASO        CLEAR     57  18  21 S7        29.96S
6HR MIN TEMP:  57; 6HR MAX TEMP:  67;

$$


........................KEY........................
SKY/WX - SKY CONDITION/WEATHER
TMP    - TEMPERATURE IN FAHRENHEIT
DP     - DEW POINT IN FAHRENHEIT
RH     - RELATIVE HUMIDITY IN PERCENT
WIND   - DIRECTION AND SPEED IN MILES PER HOUR (MPH)
VRB    - VARIABLE WIND DIRECTION
PRES   - MEAN SEA LEVEL PRESSURE IN INCHES OF MERCURY
         F - FALLING PRESSURE   R - RISING PRESSURE
         S - STEADY PRESSURE
VSB    - VISIBILITY IN MILES
HX     - HEAT INDEX IN FAHRENHEIT
WCI    - WIND CHILL INDEX IN FAHRENHEIT
TC     - TEMPERATURE IN CELSIUS WHICH IS ALSO KNOWN AS
         TEMPERATURE IN CENTIGRADE
AFB    - AIR FORCE BASE
         LUKE AFB IS LUKE AIR FORCE BASE
         DAVIS-MONTHAN IS DAVIS-MONTHAN AIR FORCE BASE
NAS    - NAVAL AIR STATION
         EL CENTRO NAS IS EL CENTRO NAVAL AIR STATION
N/A    - NOT AVAILABLE




USA.gov is the U.S. government's official web portal to all federal, state and local government web resources and services.